Weather History for Cape Girardeau, MO

Change the Weather History Date:

Sunday, May 26, 2013

  Actual Average Record
Temperature  
Mean Temperature 70 °F 70 °F  
Max Temperature 84 °F 81 °F 96 °F (2012)
Min Temperature 55 °F 59 °F 43 °F (1961)
Degree Days  
Heating Degree Days 0 1  
Month to date heating degree days 93 64  
Since 1 July heating degree days 4359 4382  
Cooling Degree Days 5 6  
Month to date cooling degree days 86 90  
Year to date cooling degree days 111 121  
Growing Degree Days 18 (Base 50)    
Moisture  
Dew Point 58 °F    
Average Humidity 68    
Maximum Humidity 93    
Minimum Humidity 43    
Precipitation  
Precipitation 0.00 in 0.15 in 5.50 in (1973)
Month to date precipitation 2.25 4.73  
Year to date precipitation 15.07 20.37  
Sea Level Pressure  
Sea Level Pressure 30.13 in    
Wind  
Wind Speed 6 mph (SSE)    
Max Wind Speed 13 mph    
Max Gust Speed 18 mph    
Visibility 10 miles    
Events      
T = Trace of Precipitation, MM = Missing Value Source: NWS Daily Summary

Daily Weather History Graph

Daily Weather History Graph

Search for Another Location

Airport:

Trip Planner

Search our weather history database for the weather conditions in past years. The results will help you decide how hot, cold, wet, or windy it might be!

Date:

Astronomy

May. 26, 2013 Rise Set
Actual Time 5:42 AM CDT 8:09 PM CDT
Civil Twilight 5:12 AM CDT 8:39 PM CDT
Nautical Twilight 4:35 AM CDT 9:16 PM CDT
Astronomical Twilight 3:54 AM CDT 9:57 PM CDT
Moon 9:57 PM CDT (5/26) 7:10 AM CDT (5/26)
Length of Visible Light 15h 26m
Length of Day
14h 26m
Waning Gibbous, 96% of the Moon is Illuminated
May 26
Waning Gibbous
May 31
Last Quarter
Jun 8
New
Jun 16
First Quarter
Jun 23
Full

Hourly Weather History & Observations

Time (CDT) Temp. Heat Index Dew Point Humidity Pressure Visibility Wind Dir Wind Speed Gust Speed Precip Events Conditions
12:53 AM 62.1 °F - 55.0 °F 78% 30.17 in 10.0 mi Calm Calm - N/A   Clear
1:53 AM 60.1 °F - 54.0 °F 80% 30.17 in 10.0 mi NE 4.6 mph - N/A   Clear
2:53 AM 55.9 °F - 54.0 °F 93% 30.17 in 10.0 mi ESE 3.5 mph - N/A   Clear
3:53 AM 57.9 °F - 54.0 °F 87% 30.17 in 10.0 mi ESE 4.6 mph - N/A   Mostly Cloudy
5:53 AM 55.9 °F - 53.1 °F 90% 30.17 in 10.0 mi East 3.5 mph - N/A   Clear
6:53 AM 62.1 °F - 55.9 °F 80% 30.17 in 10.0 mi Calm Calm - N/A   Clear
7:53 AM 64.9 °F - 55.9 °F 73% 30.18 in 10.0 mi SE 3.5 mph - N/A   Partly Cloudy
8:53 AM 70.0 °F - 57.9 °F 65% 30.18 in 10.0 mi SSE 4.6 mph - N/A   Partly Cloudy
9:53 AM 72.0 °F - 59.0 °F 64% 30.19 in 10.0 mi SSE 3.5 mph - N/A   Mostly Cloudy
10:53 AM 75.9 °F - 57.9 °F 54% 30.19 in 10.0 mi South 6.9 mph - N/A   Scattered Clouds
11:53 AM 78.1 °F - 59.0 °F 52% 30.18 in 10.0 mi SSE 6.9 mph - N/A   Partly Cloudy
12:53 PM 79.0 °F - 57.9 °F 48% 30.17 in 10.0 mi South 5.8 mph - N/A   Partly Cloudy
1:53 PM 82.0 °F 82.0 °F 57.9 °F 44% 30.15 in 10.0 mi South 9.2 mph - N/A   Partly Cloudy
2:53 PM 82.9 °F 83.2 °F 60.1 °F 46% 30.12 in 10.0 mi SSW 4.6 mph - N/A   Clear
3:53 PM 82.9 °F 83.3 °F 61.0 °F 47% 30.10 in 10.0 mi SSW 10.4 mph - N/A   Partly Cloudy
4:53 PM 82.9 °F 83.2 °F 60.1 °F 46% 30.08 in 10.0 mi South 9.2 mph - N/A   Clear
5:53 PM 82.9 °F 83.3 °F 61.0 °F 47% 30.06 in 10.0 mi SSE 9.2 mph - N/A   Clear
6:53 PM 81.0 °F 81.7 °F 61.0 °F 50% 30.06 in 10.0 mi SSE 6.9 mph - N/A   Clear
7:53 PM 77.0 °F - 60.1 °F 56% 30.06 in 10.0 mi SSE 8.1 mph - N/A   Clear
8:53 PM 73.9 °F - 60.1 °F 62% 30.06 in 10.0 mi South 6.9 mph - N/A   Clear
9:53 PM 73.0 °F - 57.9 °F 59% 30.06 in 10.0 mi SSE 6.9 mph - N/A   Clear
10:53 PM 71.1 °F - 57.9 °F 63% 30.06 in 10.0 mi South 8.1 mph - N/A   Clear
11:53 PM 68.0 °F - 57.0 °F 68% 30.06 in 10.0 mi South 5.8 mph - N/A   Clear